TimePST,TemperatureF,Dew PointF,Humidity,Sea Level PressureIn,VisibilityMPH,Wind Direction,Wind SpeedMPH,Gust SpeedMPH,PrecipitationIn,Events,Conditions,WindDirDegrees,DateUTC
12:56 AM,46.9,42.1,83,29.94,10.0,SSE,5.8,-,N/A,,Scattered Clouds,150,2012-11-09 08:56:00
1:56 AM,45.0,41.0,86,29.93,10.0,SE,6.9,-,N/A,,Clear,140,2012-11-09 09:56:00
2:56 AM,46.0,42.1,86,29.92,10.0,ESE,4.6,-,N/A,,Mostly Cloudy,120,2012-11-09 10:56:00
3:56 AM,46.9,43.0,86,29.93,10.0,SSW,3.5,-,0.02,Rain,Light Rain,210,2012-11-09 11:56:00
4:56 AM,46.9,44.1,90,29.93,10.0,WSW,3.5,-,0.00,,Scattered Clouds,240,2012-11-09 12:56:00
5:56 AM,46.9,43.0,86,29.94,10.0,West,3.5,-,N/A,,Overcast,260,2012-11-09 13:56:00
6:56 AM,46.9,42.1,83,29.95,10.0,West,4.6,-,N/A,,Clear,270,2012-11-09 14:56:00
7:56 AM,48.0,42.1,80,29.96,10.0,Calm,Calm,-,N/A,,Clear,0,2012-11-09 15:56:00
8:56 AM,50.0,42.1,74,29.97,10.0,Calm,Calm,-,N/A,,Clear,0,2012-11-09 16:56:00
9:56 AM,52.0,41.0,66,29.98,10.0,NNE,3.5,-,N/A,,Scattered Clouds,30,2012-11-09 17:56:00
10:56 AM,54.0,41.0,62,29.98,10.0,NE,5.8,-,N/A,,Partly Cloudy,40,2012-11-09 18:56:00
11:56 AM,55.0,41.0,59,29.96,10.0,Calm,Calm,-,N/A,,Clear,0,2012-11-09 19:56:00
12:56 PM,57.0,39.9,53,29.95,10.0,North,9.2,-,N/A,,Clear,350,2012-11-09 20:56:00
1:56 PM,57.9,36.0,44,29.94,10.0,NW,9.2,-,N/A,,Scattered Clouds,320,2012-11-09 21:56:00
2:56 PM,57.9,34.0,41,29.94,10.0,NW,9.2,17.3,N/A,,Clear,320,2012-11-09 22:56:00
3:56 PM,57.0,37.0,47,29.95,10.0,WNW,9.2,-,N/A,,Overcast,290,2012-11-09 23:56:00
4:56 PM,53.1,37.9,57,29.96,10.0,West,10.4,-,N/A,,Partly Cloudy,260,2012-11-10 00:56:00
5:56 PM,52.0,39.0,61,29.98,10.0,Calm,Calm,-,N/A,,Clear,0,2012-11-10 01:56:00
6:56 PM,51.1,39.9,66,29.99,10.0,WSW,3.5,-,N/A,,Partly Cloudy,240,2012-11-10 02:56:00
7:56 PM,50.0,39.9,68,30.00,10.0,Calm,Calm,-,N/A,,Mostly Cloudy,0,2012-11-10 03:56:00
8:56 PM,50.0,41.0,71,30.01,10.0,WSW,3.5,-,N/A,,Clear,240,2012-11-10 04:56:00
9:56 PM,48.9,41.0,74,30.01,10.0,Calm,Calm,-,N/A,,Clear,0,2012-11-10 05:56:00
10:56 PM,48.9,41.0,74,30.01,10.0,Calm,Calm,-,N/A,,Clear,0,2012-11-10 06:56:00
11:56 PM,48.0,39.9,74,30.02,10.0,West,3.5,-,N/A,,Clear,260,2012-11-10 07:56:00